Home > Weather > Rovaniemi > Past weeks

Flag for Finland Weather for the Past 2 Weeks in Rovaniemi, Finland

Now
32 °F

Snow. Partly cloudy.


Feels Like: 26 °F
Forecast: 26 / 33 °F
Wind: 6 mph from East

Location: Rovaniemi Airport

Current Time: Feb 11, 2016 at 4:27:23 AM

Latest Report: Feb 11, 2016 at 3:20 AM


Visibility: 1 mi

Pressure: 29.24 "Hg

Humidity: 100%

Dew point: 32 °F

Location of RovaniemiLocation

Historic Weather in Rovaniemi — Graph

°F

Rovaniemi Temperature Yesterday

Maximum temperature yesterday: 32 °F (at 12:20 AM)
Minimum temperature yesterday: 32 °F (at 12:20 AM)
Average temperature yesterday: 32 °F

High & Low Weather Summary for the Past Weeks

 TemperatureHumidityPressure
High32 °F (Jan 30, 10:20 AM)100% (Jan 27, 8:20 AM)29.33 "Hg (Jan 27, 8:20 AM)
Low7 °F (Jan 29, 11:20 AM)85% (Jan 29, 5:50 AM)28.53 "Hg (Jan 30, 12:20 PM)
Average23 °F96%28.95 "Hg
* Reported Jan 27 2:20 AM — Feb 11 2:50 AM, Rovaniemi, Weather by CustomWeather, © 2016

Note: Actual official high and low records may vary slightly from our data, if they occured in-between our weather recording intervals... More about our weather records

Advertising

Rovaniemi Weather History for the Previous 24 Hours

 ConditionsComfort  
Time TempWeatherWind HumidityBarometerVisibility
2:50 AM
Thu, Feb 11
32 °FSnow. Passing clouds.7 mph100%29.24 "Hg1 mi
2:20 AM32 °FSnow. Mostly cloudy.6 mph100%29.24 "Hg1 mi
1:50 AM32 °FLight snow. Passing clouds.6 mph100%29.27 "Hg1 mi
1:20 AM32 °FLight snow. Overcast.6 mph100%29.27 "Hg1 mi
12:50 AM32 °FIce fog.5 mph100%29.27 "Hg0 mi
11:50 PM
Wed, Feb 10
32 °FLight snow. Partly cloudy.5 mph100%29.30 "Hg3 mi
10:50 PM32 °FPassing clouds.5 mph100%29.30 "HgN/A
10:20 PM32 °FPartly cloudy.6 mph100%29.30 "HgN/A
9:50 PM32 °FFog.6 mph100%29.30 "HgN/A
8:50 PM32 °FLight snow. Fog.6 mph100%29.30 "Hg3 mi
8:20 PM32 °FIce fog.6 mph100%29.33 "Hg3 mi
7:50 PM32 °FFog.9 mph100%29.30 "Hg1 mi
7:20 PM32 °FFog.7 mph100%29.30 "Hg0 mi
6:50 PM32 °FFog.7 mph100%29.27 "Hg0 mi
6:20 PM32 °FFog.9 mph100%29.27 "Hg0 mi
5:50 PM32 °FFog.8 mph100%29.27 "Hg0 mi
5:20 PM32 °FFog.7 mph100%29.27 "Hg1 mi
4:50 PM32 °FIce fog.7 mph100%29.27 "Hg2 mi
4:20 PM32 °FIce fog.6 mph100%29.24 "Hg1 mi
3:50 PM32 °FIce fog.9 mph100%29.24 "Hg2 mi
3:20 PM32 °FLight snow. Fog.10 mph100%29.24 "Hg4 mi
2:50 PM32 °FFog.9 mph100%29.24 "Hg1 mi
2:20 PM32 °FFog.10 mph100%29.21 "Hg0 mi
1:50 PM32 °FPartly sunny.9 mph100%29.21 "Hg3 mi
1:20 PM32 °FFog.9 mph100%29.18 "Hg1 mi
12:50 PM32 °FIce fog.7 mph100%29.18 "Hg2 mi
12:20 PM32 °FLight snow. Partly sunny.8 mph100%29.15 "Hg3 mi
11:50 AM32 °FLight rain. Broken clouds.8 mph100%29.15 "Hg2 mi
11:20 AM32 °FLight snow. Partly sunny.7 mph100%29.15 "Hg2 mi
10:50 AM32 °FLight snow. Partly sunny.9 mph100%29.12 "Hg1 mi
10:20 AM32 °FSnow. Partly sunny.7 mph100%29.12 "Hg1 mi
9:50 AM32 °FLight rain. Partly sunny.8 mph100%29.12 "Hg1 mi
9:20 AM32 °FLight rain. Partly sunny.7 mph100%29.09 "Hg1 mi
8:50 AM32 °FLight rain. Partly sunny.7 mph100%29.09 "Hg1 mi
8:20 AM32 °FLight rain. Ice fog.7 mph100%29.06 "Hg1 mi
7:50 AM32 °FLight rain. Ice fog.7 mph100%29.06 "Hg1 mi
7:20 AM32 °FLight snow. Fog.6 mph100%29.03 "Hg0 mi
6:50 AM32 °FFog.6 mph100%29.03 "Hg0 mi
6:20 AM32 °FIce fog.3 mph100%29.03 "Hg1 mi
5:50 AM32 °FFog.3 mph100%29.03 "Hg0 mi
5:20 AM32 °FIce fog.5 mph100%29.03 "Hg0 mi
4:50 AM32 °FIce fog.6 mph100%29.03 "Hg0 mi
4:20 AM32 °FIce fog.6 mph100%29.03 "Hg0 mi
Weather by CustomWeather, © 2016

See weather overviewHow to use our weather pages